sat.trackr.live / text

‹ back to catalog

SWAS

NORAD 25560 · 1998-071A

PAYLOAD ACTIVE UNKNOWN

§ Identity

Operator
Country
US
Launch date
1998-12-06
Launch site
WRAS
Launch vehicle
Mass (kg)
RCS (m²)
1.81

Purposes: science

External: N2YO · Heavens-Above · Gunter

§ Orbital elements

Epoch: 2026-09-12T14:22:56.078688Z

Period
95.36 min
Inclination
69.8982°
Eccentricity
0.0003270
Mean motion
15.10082631 rev/d
Perigee alt
533.7 km
Apogee alt
538.2 km
Semi-major
6,914.1 km
B*
1.8158e-4
RAAN
2.0183°
Arg perigee
145.9325°
Mean anomaly
214.2050°
Rev number
51,046

§ Raw data

SWAS1 25560U 98071A   26255.59926017  .00002859  00000+0  18158-3 0  99912 25560  69.8982   2.0183 0003270 145.9325 214.2050 15.10082631510464

JSON: /api/v1/satellites/25560 · /tle

For live sub-satellite position, see the globe view (requires WebGL).

§ Visibility from observer

Set your observer location to see the next 7 days of passes ≥ 10°. The values pass through the URL so the page stays shareable.

No JS? Fill the form by hand. The geolocation button needs JavaScript.